When you browse on this site, cookies collect data to enhance your experience and personalize the content and advertising you see.
Visit our Privacy Policy to learn more. By continuing to use the site, you agree to this use of cookies and data.
  • In Hungary
  • List of Countries
  • For 7 days
  • Water Temperature
  • Weather Map
  • News
  • Weather Widgets
  • user-avatar
    Login

    Hourly Weather Tuklecz

    Today, 22 September, Sunday

    Time Temperature Precipitation Wind Pressure Humidity
    00:00 +9°C° 0 mm 2 mps 749 mmHg 80%
    01:00 +9°C° 0 mm 2 mps 749 mmHg 81%
    02:00 +9°C° 0 mm 2 mps 749 mmHg 82%
    03:00 +8°C° 0 mm 2 mps 749 mmHg 82%
    04:00 +8°C° 0 mm 2 mps 748 mmHg 83%
    05:00 +9°C° 0 mm 2 mps 748 mmHg 79%
    06:00 +10°C° 0 mm 2 mps 748 mmHg 75%
    07:00 +12°C° 0 mm 2 mps 748 mmHg 72%
    08:00 +14°C° 0 mm 2 mps 748 mmHg 64%
    09:00 +16°C° 0 mm 2 mps 748 mmHg 57%
    10:00 +18°C° 0 mm 2 mps 748 mmHg 50%
    11:00 +20°C° 0 mm 1 mps 747 mmHg 48%
    12:00 +21°C° 0 mm 1 mps 747 mmHg 46%
    13:00 +22°C° 0 mm 1 mps 747 mmHg 44%
    14:00 +22°C° 0 mm 1 mps 746 mmHg 46%
    15:00 +22°C° 0 mm 1 mps 746 mmHg 48%
    16:00 +22°C° 0 mm 1 mps 745 mmHg 50%
    17:00 +20°C° 0 mm 1 mps 745 mmHg 56%
    18:00 +16°C° 0 mm 1 mps 745 mmHg 62%
    19:00 +14°C° 0 mm 1 mps 745 mmHg 68%
    20:00 +14°C° 0 mm 1 mps 745 mmHg 69%
    21:00 +13°C° 0 mm 1 mps 745 mmHg 69%
    22:00 +12°C° 0 mm 1 mps 745 mmHg 70%
    23:00 +12°C° 0 mm 1 mps 745 mmHg 71%

    Tomorrow, 23 September, Monday

    Time Temperature Precipitation Wind Pressure Humidity
    00:00 +12°C° 0 mm 1 mps 745 mmHg 71%
    01:00 +11°C° 0 mm 1 mps 745 mmHg 72%
    02:00 +11°C° 0 mm 1 mps 745 mmHg 72%
    03:00 +10°C° 0 mm 1 mps 745 mmHg 73%
    04:00 +9°C° 0 mm 2 mps 744 mmHg 73%
    05:00 +9°C° 0 mm 2 mps 744 mmHg 71%
    06:00 +10°C° 0 mm 2 mps 744 mmHg 69%
    07:00 +10°C° 0 mm 2 mps 744 mmHg 66%
    08:00 +14°C° 0 mm 2 mps 745 mmHg 60%
    09:00 +16°C° 0 mm 3 mps 745 mmHg 53%
    10:00 +18°C° 0 mm 3 mps 745 mmHg 47%
    11:00 +20°C° 0 mm 3 mps 745 mmHg 44%
    12:00 +21°C° 0 mm 3 mps 744 mmHg 42%
    13:00 +22°C° 0 mm 3 mps 744 mmHg 39%
    14:00 +22°C° 0 mm 3 mps 744 mmHg 42%
    15:00 +22°C° 0 mm 3 mps 744 mmHg 45%
    16:00 +21°C° 0 mm 3 mps 744 mmHg 49%
    17:00 +19°C° 0 mm 2 mps 744 mmHg 55%
    18:00 +17°C° 0 mm 2 mps 744 mmHg 61%
    19:00 +15°C° 0 mm 2 mps 744 mmHg 67%
    20:00 +14°C° 0 mm 2 mps 744 mmHg 71%
    21:00 +14°C° 0 mm 2 mps 744 mmHg 76%
    22:00 +13°C° 0 mm 2 mps 744 mmHg 81%
    23:00 +12°C° 0 mm 2 mps 744 mmHg 85%

    Day after tomorrow, 24 September, Tuesday

    Time Temperature Precipitation Wind Pressure Humidity
    00:00 +12°C° 0 mm 2 mps 744 mmHg 88%
    01:00 +10°C° 0 mm 2 mps 744 mmHg 92%
    02:00 +10°C° 0 mm 2 mps 744 mmHg 93%
    03:00 +10°C° 0 mm 2 mps 744 mmHg 93%
    04:00 +10°C° 0 mm 1 mps 743 mmHg 94%
    05:00 +11°C° 0 mm 1 mps 743 mmHg 91%
    06:00 +12°C° 0 mm 1 mps 743 mmHg 89%
    07:00 +12°C° 0 mm 1 mps 743 mmHg 86%
    08:00 +14°C° 0 mm 2 mps 743 mmHg 77%
    09:00 +17°C° 0 mm 2 mps 743 mmHg 68%
    10:00 +19°C° 0 mm 2 mps 743 mmHg 59%
    11:00 +20°C° 0 mm 2 mps 743 mmHg 55%
    12:00 +21°C° 0 mm 3 mps 742 mmHg 51%
    13:00 +22°C° 0 mm 3 mps 742 mmHg 47%
    14:00 +22°C° 0 mm 3 mps 742 mmHg 49%
    15:00 +22°C° 0 mm 3 mps 741 mmHg 51%
    16:00 +23°C° 0 mm 2 mps 741 mmHg 53%
    17:00 +20°C° 0 mm 2 mps 741 mmHg 60%
    18:00 +18°C° 0 mm 2 mps 741 mmHg 66%
    19:00 +16°C° 0 mm 2 mps 741 mmHg 72%
    20:00 +15°C° 0 mm 2 mps 741 mmHg 74%
    21:00 +15°C° 0 mm 2 mps 741 mmHg 76%
    22:00 +14°C° 0 mm 2 mps 741 mmHg 78%
    23:00 +14°C° 0 mm 1 mps 740 mmHg 77%

    25 September, Wednesday

    Time Temperature Precipitation Wind Pressure Humidity
    00:00 +14°C° 0 mm 1 mps 740 mmHg 76%
    01:00 +14°C° 0 mm 1 mps 740 mmHg 75%
    02:00 +14°C° 0 mm 1 mps 740 mmHg 75%
    03:00 +14°C° 0 mm 1 mps 739 mmHg 76%
    04:00 +14°C° 0 mm 1 mps 739 mmHg 76%
    05:00 +14°C° 0 mm 1 mps 739 mmHg 76%
    06:00 +15°C° 0 mm 1 mps 739 mmHg 75%
    07:00 +15°C° 0 mm 1 mps 739 mmHg 75%
    08:00 +16°C° 0 mm 2 mps 739 mmHg 72%
    09:00 +18°C° 0 mm 2 mps 739 mmHg 69%
    10:00 +19°C° 0 mm 2 mps 739 mmHg 66%
    11:00 +19°C° 0.5 mm 3 mps 739 mmHg 66%
    12:00 +20°C° 0.5 mm 3 mps 739 mmHg 65%
    13:00 +20°C° 0.5 mm 4 mps 739 mmHg 64%
    14:00 +20°C° 0.4 mm 3 mps 738 mmHg 67%
    15:00 +19°C° 0.4 mm 3 mps 738 mmHg 69%
    16:00 +18°C° 0.4 mm 3 mps 738 mmHg 71%
    17:00 +18°C° 0.1 mm 3 mps 738 mmHg 75%
    18:00 +17°C° 0.1 mm 3 mps 739 mmHg 79%
    19:00 +16°C° 0.1 mm 2 mps 739 mmHg 83%
    20:00 +16°C° 0.1 mm 3 mps 739 mmHg 83%
    21:00 +14°C° 0.1 mm 3 mps 739 mmHg 83%
    22:00 +14°C° 0.1 mm 4 mps 739 mmHg 83%
    23:00 +13°C° 0 mm 4 mps 740 mmHg 85%

    26 September, Thursday

    Time Temperature Precipitation Wind Pressure Humidity
    00:00 +13°C° 0 mm 4 mps 740 mmHg 87%
    01:00 +12°C° 0 mm 4 mps 740 mmHg 89%
    02:00 +11°C° 0 mm 4 mps 740 mmHg 89%
    03:00 +11°C° 0 mm 4 mps 740 mmHg 90%
    04:00 +10°C° 0 mm 3 mps 740 mmHg 90%
    05:00 +11°C° 0 mm 4 mps 741 mmHg 88%
    06:00 +11°C° 0 mm 4 mps 741 mmHg 85%
    07:00 +12°C° 0 mm 4 mps 741 mmHg 83%
    08:00 +13°C° 0 mm 5 mps 742 mmHg 76%
    09:00 +15°C° 0 mm 5 mps 742 mmHg 70%
    10:00 +16°C° 0 mm 6 mps 742 mmHg 64%
    11:00 +17°C° 0 mm 6 mps 742 mmHg 60%
    12:00 +19°C° 0 mm 6 mps 742 mmHg 56%
    13:00 +20°C° 0 mm 6 mps 742 mmHg 53%
    14:00 +19°C° 0.1 mm 6 mps 742 mmHg 55%
    15:00 +17°C° 0.1 mm 5 mps 742 mmHg 58%
    16:00 +17°C° 0.1 mm 5 mps 742 mmHg 61%
    17:00 +15°C° 0 mm 5 mps 742 mmHg 68%
    18:00 +14°C° 0 mm 4 mps 743 mmHg 76%
    19:00 +12°C° 0 mm 3 mps 743 mmHg 83%
    20:00 +12°C° 0 mm 3 mps 743 mmHg 83%
    21:00 +13°C° 0 mm 3 mps 743 mmHg 82%
    22:00 +13°C° 0 mm 3 mps 744 mmHg 81%
    23:00 +13°C° 0 mm 3 mps 744 mmHg 82%

    27 September, Friday

    Time Temperature Precipitation Wind Pressure Humidity
    00:00 +13°C° 0 mm 3 mps 744 mmHg 83%
    01:00 +14°C° 0 mm 2 mps 744 mmHg 84%
    02:00 +13°C° 0 mm 2 mps 744 mmHg 85%
    03:00 +13°C° 0 mm 2 mps 744 mmHg 86%
    04:00 +13°C° 0 mm 2 mps 743 mmHg 87%
    05:00 +13°C° 0 mm 2 mps 743 mmHg 85%
    06:00 +13°C° 0 mm 2 mps 743 mmHg 83%
    07:00 +14°C° 0 mm 2 mps 743 mmHg 81%
    08:00 +13°C° 0.1 mm 3 mps 744 mmHg 82%
    09:00 +13°C° 0.1 mm 3 mps 744 mmHg 83%
    10:00 +14°C° 0.1 mm 3 mps 744 mmHg 85%
    11:00 +14°C° 0 mm 3 mps 744 mmHg 81%
    12:00 +16°C° 0 mm 3 mps 744 mmHg 78%
    13:00 +17°C° 0 mm 2 mps 744 mmHg 75%
    14:00 +17°C° 0 mm 2 mps 744 mmHg 75%
    15:00 +17°C° 0 mm 2 mps 744 mmHg 75%
    16:00 +18°C° 0 mm 1 mps 743 mmHg 75%
    17:00 +16°C° 0 mm 1 mps 744 mmHg 79%
    18:00 +15°C° 0 mm 1 mps 744 mmHg 82%
    19:00 +14°C° 0 mm 1 mps 744 mmHg 86%
    20:00 +14°C° 0 mm 1 mps 744 mmHg 86%
    21:00 +14°C° 0 mm 2 mps 744 mmHg 86%
    22:00 +14°C° 0 mm 2 mps 744 mmHg 85%
    23:00 +13°C° 0 mm 2 mps 743 mmHg 87%
    Show more